This demonstration page uses our WeatherBlox Daily Observations layout. Learn more.

Left ArrowRight Arrow

38.20091, -84.87328

Hourly Observations for July 20, 2022

Temp ( °F °C ) Dew Point ( °F °C ) Humidity (%) Winds ( mph kmh ) Pressure ( in mb ) Visibility ( mi km ) Precip ( " mm )
12:53 am 00:53 Clear 77 25 69 20.6 77 77 SSE 6 9 29.86 1011 10 16 0.00 0.00
1:53 am 01:53 Clear 76 24.4 69 20.6 79 79 SSE 3 6 29.85 1011 10 16 0.00 0.00
2:53 am 02:53 Mostly Clear 76 24.4 69 20.6 79 79 S 5 7 29.84 1010 10 16 0.00 0.00
3:53 am 03:53 Mostly Cloudy 76 24.4 70 21.1 82 82 SSW 5 7 29.83 1010 10 16 0.00 0.00
4:53 am 04:53 Clear 75 23.9 71 21.7 88 88 SSW 5 7 29.81 1010 10 16 0.00 0.00
5:53 am 05:53 Clear 75 23.9 71 21.7 88 88 SSW 5 7 29.81 1010 10 16 0.00 0.00
6:53 am 06:53 Mostly Sunny 75 23.9 72 22.2 90 90 S 5 7 29.82 1010 10 16 0.00 0.00
7:53 am 07:53 Partly Cloudy 76 24.4 73 22.8 91 91 SSW 9 15 29.82 1010 10 16 0.00 0.00
8:26 am 08:26 Mostly Cloudy 78 25.6 74 23.3 87 87 SSW 7 11 29.82 1010 10 16 0.00 0.00
8:53 am 08:53 Mostly Cloudy 79 26.1 74 23.3 85 85 SW 12 19 29.82 1010 10 16 0.00 0.00
9:01 am 09:01 Mostly Sunny 80 26.7 74 23.3 82 82 SSW 12 19 29.81 1010 10 16 0.00 0.00
9:35 am 09:35 Mostly Cloudy 81 27.2 75 23.9 82 82 SSW 10 17 29.81 1010 10 16 0.00 0.00
9:45 am 09:45 Mostly Cloudy 81 27.2 75 23.9 82 82 SSW 8 13 29.80 1009 10 16 0.00 0.00
9:53 am 09:53 Mostly Cloudy 81 27.2 75 23.9 82 82 SSW 10 17 29.82 1010 10 16 0.00 0.00
10:45 am 10:45 Mostly Cloudy 84 28.9 76 24.4 77 77 S 10 17 29.79 1009 10 16 0.00 0.00
10:53 am 10:53 Mostly Cloudy 85 29.4 77 25 77 77 S 10 17 29.80 1009 10 16 0.00 0.00
11:53 am 11:53 Mostly Cloudy 86 30 76 24.4 72 72 SW 8 13 29.78 1008 10 16 0.00 0.00
12:25 pm 12:25 Mostly Cloudy 88 31.1 77 25 70 70 SSW 10 17 29.76 1008 10 16 0.00 0.00
12:53 pm 12:53 Mostly Cloudy 89 31.7 77 25 68 68 SSW 12 19 29.77 1008 10 16 0.00 0.00
1:53 pm 13:53 Mostly Sunny 91 32.8 77 25 64 64 SSW 14 22 29.75 1007 10 16 0.00 0.00
2:53 pm 14:53 Partly Cloudy 91 32.8 77 25 64 64 SSW 14 22 29.73 1007 10 16 0.00 0.00
3:53 pm 15:53 Partly Cloudy 92 33.3 77 25 62 62 SSW 14 22 29.71 1006 10 16 0.00 0.00
4:53 pm 16:53 Mostly Sunny 92 33.3 76 24.4 60 60 WSW 12 19 29.70 1006 10 16 0.00 0.00
5:53 pm 17:53 Mostly Sunny 91 32.8 77 25 64 64 SSW 14 22 29.69 1005 10 16 0.00 0.00
6:53 pm 18:53 Mostly Sunny 91 32.8 77 25 64 64 SSW 13 20 29.67 1005 10 16 0.00 0.00
7:53 pm 19:53 Sunny 89 31.7 78 25.6 70 70 SW 9 15 29.69 1005 10 16 0.00 0.00
8:53 pm 20:53 Partly Cloudy 87 30.6 78 25.6 75 75 SSW 7 11 29.70 1006 10 16 0.00 0.00
9:53 pm 21:53 Clear 85 29.4 78 25.6 80 80 SW 6 9 29.70 1006 10 16 0.00 0.00
10:53 pm 22:53 Mostly Cloudy 84 28.9 78 25.6 82 82 VRB 3 6 29.72 1007 10 16 0.00 0.00
11:53 pm 23:53 Partly Cloudy 83 28.3 78 25.6 85 85 SSW 7 11 29.71 1006 10 16 0.00 0.00

Powered by AerisWeather